Location: Marcé
(47.5801°N, 0.3280°W)
Time: 22:06:05
(UTC+01:00)

Transit 2A - Pass Details

Date: 08 December 2021
Orbit: 591 x 967 km, 66.7° (Epoch: 23 January)

Event Time Altitude Azimuth Distance (km) Brightness Sun altitude
Rises 02:29:58 0° 266° (W) 3,447 - -58.5°
Reaches altitude 10° 02:33:00 10° 282° (WNW) 2,570 - -58.1°
Maximum altitude 02:37:34 22° 331° (NNW) 1,930 - -57.5°
Drops below altitude 10° 02:42:21 10° 21° (NNE) 2,697 - -56.9°
Exits shadow 02:44:56 - 33° (NNE) 3,446 9.8 -56.6°
Sets 02:45:38 0° 36° (NE) 3,662 10.0 -56.5°
